Powrót do katalogu

FENGYUN 1C DEB

LostPO
NORAD 31063·DEBRIS·🇨🇳 China

Wystrzelony May 10, 1999 z Taiyuan Satellite Launch Center

Loading…

Następne Przeloty (najbliższe 24 godziny)

TLE

NieaktualneSource: Space-Track

Epoka: Dec 28, 2025, 19:14 UTC

1 31063U 99025BFH 25362.80150404  .00643676  00000-0  13141-1 0  9991
2 31063  99.8321  13.6599 0008689  46.5833 129.5438 15.44037302988354

Śledź FENGYUN 1C DEB w czasie rzeczywistym z AllMySat

Download on the App Store